Погода в Истаравшане

Таджикистан     39°54′39″N   69°00′16″E
темп.,
°C
ветер,
м/с
пор.,
м/с
влажн.,
%
обл.,
%
осадки,
мм/ч
давл.,
гПа
погр.,
м
27 октября, ср
ср2723:00+12юз333044 0.0 102321
02:00+12юз3334100 0.0 102437
05:00+11ююз2236100 0.0 102410
08:00+12ююв1135100 0.0 102311
11:00+16с2126100 0.0 1024525
14:00+16с2127100 0.0 1023827
17:00+14ссв2232100 0.0 102343
20:00+12юз0037100 0.0 102310
28 октября, чт
чт2823:00+11з2238100 0.0 102310
02:00+10зюз3446100 0.0 102360
05:00+9з365483 0.0 1024118
08:00+9зюз2555100 0.0 1025195
11:00+12зсз43475 0.0 1025756
14:00+13сз654239 0.0 10241479
17:00+7зсз6688100 0.1 1028573
20:00+6зсз2281100 0.1 1029456
29 октября, пт
пт2923:00+7вюв117449 0.2 1028406
02:00+6сз117949 0.0 102976
05:00+5ю118419 0.0 102910
08:00+6ю11766 0.0 103080
11:00+10ссв21550 0.0 1029675
14:00+12с32500 0.0 1028962
17:00+11ссв33570 0.0 1030300
20:00+8в22680 0.0 103118
30 октября, сб
сб3023:00+8вюв22720 0.0 103112
02:00+7вюв22730 0.0 103112
05:00+7вюв33700 0.0 103015
08:00+8в33540 0.0 103153
11:00+14всв33390 0.0 1030545
14:00+16всв32340 0.0 1028959
17:00+14св46420 0.0 1029123
20:00+10вюв11565 0.0 103110
31 октября, вс
вс3123:00+8в115894 0.0 103010
02:00+8ююз115976 0.0 103110
05:00+7св1159100 0.0 103010
08:00+9юв005439 0.0 103110
11:00+12ссв33410 0.0 1031556
14:00+15св33360 0.0 10291002
17:00+13ссв34420 0.0 102993
20:00+9юв11520 0.0 103010